This is the latest recevied weather packets stored in our database for station/object KB0RPJ. If no packets are shown the sender has not sent any weather packets the latest 10 day(s).
| Time | Temp. | Humidity | Pressure | Rain* | Wind** | Luminosity | Snow |
|---|---|---|---|---|---|---|---|
| 1777333505 | 17.22° C | 72% | 1005.5 hPa | 0 mm | - | 59 W/m² | - |
| 1777333206 | 17.22° C | 72% | 1005.4 hPa | 0 mm | - | 78 W/m² | - |
| 1777332905 | 17.22° C | 72% | 1005.3 hPa | 0 mm | - | 57 W/m² | - |
| 1777332605 | 17.22° C | 73% | 1005.1 hPa | 0 mm | - | 73 W/m² | - |
| 1777332320 | 17.78° C | 74% | 1005.2 hPa | 0 mm | - | 101 W/m² | - |
| 1777332005 | 17.78° C | 75% | 1005 hPa | 0 mm | - | 141 W/m² | - |
| 1777331705 | 17.78° C | 75% | 1004.9 hPa | 0 mm | - | 123 W/m² | - |
| 1777331405 | 17.78° C | 75% | 1004.8 hPa | 0 mm | - | 60 W/m² | - |
| 1777331105 | 17.78° C | 75% | 1004.9 hPa | 0 mm | - | 58 W/m² | - |
| 1777330818 | 18.33° C | 76% | 1004.6 hPa | 0 mm | - | 62 W/m² | - |
| 1777330504 | 18.33° C | 76% | 1004.6 hPa | 0 mm | - | 104 W/m² | - |
| 1777330208 | 18.33° C | 76% | 1004.4 hPa | 0 mm | - | 131 W/m² | - |
| 1777329905 | 18.33° C | 76% | 1004.4 hPa | 0 mm | - | 184 W/m² | - |
| 1777329605 | 18.33° C | 76% | 1004.3 hPa | 0 mm | - | 131 W/m² | - |
| 1777329304 | 18.89° C | 75% | 1004.2 hPa | 0 mm | - | 130 W/m² | - |
| 1777329006 | 18.89° C | 74% | 1004.1 hPa | 0 mm | - | 163 W/m² | - |
| 1777328705 | 19.44° C | 72% | 1004 hPa | 0 mm | - | 189 W/m² | - |
| 1777328405 | 19.44° C | 70% | 1003.7 hPa | 0 mm | - | 193 W/m² | - |
| 1777328105 | 20° C | 69% | 1003.8 hPa | 0 mm | - | 272 W/m² | - |
| 1777327805 | 20° C | 70% | 1003.5 hPa | 0 mm | - | 428 W/m² | - |
| 1777327505 | 20° C | 71% | 1003.5 hPa | 0 mm | - | 327 W/m² | - |
| 1777327205 | 20.56° C | 71% | 1003.5 hPa | 0 mm | - | 175 W/m² | - |
| 1777326905 | 20.56° C | 69% | 1003.2 hPa | 0 mm | - | 299 W/m² | - |
| 1777326605 | 20.56° C | 70% | 1002.8 hPa | 0 mm | - | 643 W/m² | - |
| 1777326305 | 20.56° C | 69% | 1002.5 hPa | 0 mm | - | 245 W/m² | - |
* Rain latest hour (hover to see other rain measurements)
** Current wind speed in m/s (hover to see current wind gust speed)